Zurück zum Katalog

COSMOS 2251 DEB

AktivLEO
NORAD 33757·DEBRIS·🇷🇺 Russia

Gestartet Jun 16, 1993 von Plesetsk Cosmodrome

Loading…

Nächste Überflüge (nächste 24 Stunden)

TLE

AktuellSource: Space-Track

Epoche: Sep 14, 2026, 05:57 UTC

1 33757U 93036E   26257.24809866  .00000054  00000-0  29270-4 0  9994
2 33757  74.0376 180.6369 0013955 134.7194  17.4274 14.32637480919416

Verfolge COSMOS 2251 DEB in Echtzeit mit AllMySat

Download on the App Store